Location: Gadern
(49.5873°N, 8.8138°E)
Time: 08:47:51
(UTC+00:00)

Celestis-02/Orion 38 - Visible Passes

Search period start: 09 June 2026 00:00
Search period end: 19 June 2026 00:00
Orbit: 773 x 861 km, 108.0° (Epoch: 8 June)

Date Brightness Start Highest point End Pass type
(mag) Time Alt. Az. Time Alt. Az. Time Alt. Az.
9 Jun 6.6 00:28:05 10° ESE 00:32:38 30° NE 00:37:07 10° NNW visible
9 Jun 4.7 02:05:58 10° SSE 02:11:17 64° WSW 02:16:31 10° NW visible
10 Jun 7.1 00:07:16 10° E 00:11:12 22° NE 00:15:05 10° N visible
10 Jun 4.7 01:44:12 10° SE 01:49:34 85° ENE 01:54:50 10° NNW visible
10 Jun 7.4 23:46:42 10° ENE 23:49:51 16° NE 23:52:58 10° N visible
11 Jun 5.3 01:22:42 10° SE 01:27:56 57° NE 01:33:03 10° NNW visible
11 Jun 7.6 23:26:31 10° NE 23:28:34 12° NNE 23:30:36 10° N visible
12 Jun 6.1 01:01:28 10° ESE 01:06:22 39° NE 01:11:11 10° NNW visible
13 Jun 6.7 00:40:27 10° E 00:44:53 28° NE 00:49:14 10° NNW visible
13 Jun 4.6 02:18:09 10° SSE 02:23:29 69° WSW 02:28:42 10° NNW visible
14 Jun 7.2 00:19:41 10° E 00:23:28 21° NE 00:27:12 10° N visible
14 Jun 4.8 01:56:27 10° SE 02:01:47 80° ENE 02:07:00 10° NNW visible
14 Jun 7.5 23:59:10 10° ENE 00:02:07 15° NNE 00:05:02 10° N visible
15 Jun 5.5 01:35:01 10° SE 01:40:09 53° NE 01:45:13 10° NNW visible
15 Jun 7.7 23:39:06 10° NE 23:40:50 12° NNE 23:42:35 10° N visible
16 Jun 6.2 01:13:47 10° ESE 01:18:36 37° NE 01:23:19 10° NNW visible
17 Jun 6.9 00:52:49 10° E 00:57:07 26° NE 01:01:21 10° NNW visible
17 Jun 4.6 02:30:22 10° SSE 02:35:41 74° WSW 02:40:54 10° NNW visible
18 Jun 7.4 00:32:05 10° E 00:35:43 19° NE 00:39:18 10° N visible
18 Jun 4.9 02:08:42 10° SE 02:13:59 75° ENE 02:19:10 10° NNW visible
